Home > Weather > Poole > Past weeks

Flag for United Kingdom Past Weather in Poole, England, United Kingdom — Yesterday and Last 2 Weeks

Now
59 °F

Partly sunny.


Feels Like: 57 °F
Forecast: 53 / 65 °F
Wind: 10 mph from West

Location: Bournemouth Airport

Current Time: Jun 26, 2016 at 9:27:49 AM

Latest Report: Jun 26, 2016 at 8:50 AM


Visibility: N/A

Pressure: 30.09 "Hg

Humidity: 88%

Dew Point: 55 °F

Location of PooleLocation

Past Weather in Poole — Graph

°F

Poole Temperature Yesterday

Maximum temperature yesterday: 68 °F (at 3:50 PM)
Minimum temperature yesterday: 50 °F (at 5:50 AM)
Average temperature yesterday: 61 °F

High & Low Weather Summary for the Past Weeks

 TemperatureHumidityPressure
High72 °F (Jun 20, 3:20 PM)100% (Jun 12, 5:50 AM)30.27 "Hg (Jun 12, 5:50 AM)
Low50 °F (Jun 19, 5:50 AM)56% (Jun 25, 3:50 PM)29.39 "Hg (Jun 14, 5:50 PM)
Average61 °F84%29.86 "Hg
* Reported Jun 11 7:20 AM — Jun 26 7:50 AM, Poole, Weather by CustomWeather, © 2016

Note: Actual official high and low records may vary slightly from our data, if they occured in-between our weather recording intervals... More about our weather records

Advertising

Poole Weather History for the Previous 24 Hours

Scroll right to see more
 ConditionsComfort  
Time TempWeatherWind HumidityBarometerVisibility
7:50 AM
Sun, Jun 26
57 °FPartly sunny.6 mph88%30.09 "HgN/A
7:20 AM55 °FPassing clouds.7 mph100%30.09 "HgN/A
6:50 AM55 °FPartly sunny.6 mph94%30.09 "HgN/A
6:20 AM54 °FSunny.7 mph100%30.09 "Hg10 mi
5:50 AM52 °FClear.5 mph100%30.09 "Hg10 mi
11:20 PM
Sat, Jun 25
55 °FPassing clouds.5 mph94%30.07 "HgN/A
10:50 PM57 °FPassing clouds.8 mph88%30.07 "HgN/A
10:20 PM57 °FScattered showers. Scattered clouds.6 mph88%30.07 "HgN/A
9:50 PM57 °FScattered showers. Scattered clouds.7 mph88%30.07 "HgN/A
9:20 PM57 °FScattered clouds.8 mph94%30.07 "HgN/A
8:50 PM57 °FSprinkles. Scattered clouds.9 mph88%30.07 "HgN/A
8:20 PM57 °FScattered clouds.7 mph82%30.07 "HgN/A
7:50 PM59 °FScattered clouds.14 mph72%30.07 "HgN/A
7:20 PM63 °FScattered clouds.12 mph73%30.04 "HgN/A
6:50 PM63 °FScattered showers. Passing clouds.15 mph68%30.04 "HgN/A
6:20 PM63 °FScattered showers. Scattered clouds.10 mph77%30.04 "HgN/A
5:50 PM64 °FScattered clouds.14 mph73%30.04 "HgN/A
5:20 PM64 °FRain showers. Scattered clouds.15 mph64%30.04 "HgN/A
4:50 PM66 °FScattered clouds.16 mph56%30.04 "HgN/A
4:20 PM68 °FScattered clouds.17 mph56%30.04 "HgN/A
3:50 PM68 °FScattered clouds.15 mph56%30.04 "HgN/A
3:20 PM64 °FScattered clouds.16 mph64%30.04 "HgN/A
2:50 PM66 °FScattered clouds.12 mph64%30.04 "HgN/A
2:20 PM64 °FBroken clouds.8 mph73%30.04 "HgN/A
1:50 PM64 °FScattered clouds.12 mph78%30.04 "HgN/A
1:20 PM66 °FScattered clouds.10 mph68%30.04 "HgN/A
12:50 PM63 °FScattered clouds.13 mph73%30.04 "HgN/A
12:20 PM63 °FScattered clouds.13 mph68%30.04 "HgN/A
11:50 AM64 °FScattered clouds.16 mph60%30.04 "HgN/A
11:20 AM64 °FScattered clouds.10 mph73%30.04 "HgN/A
10:50 AM63 °FScattered clouds.12 mph68%30.04 "HgN/A
10:20 AM63 °FLight rain. Scattered clouds.10 mph68%30.04 "HgN/A
9:20 AM63 °FScattered clouds.9 mph68%30.07 "HgN/A
Weather by CustomWeather, © 2016

See weather overviewHow to use our weather pages